Погода в Коровинцах

Украина / Сумская область     50°48′32″N   33°45′01″E
темп.,
°C
ветер,
м/с
пор.,
м/с
влажн.,
%
обл.,
%
осадки,
мм/ч
давл.,
гПа
погр.,
м
4 июля, пн
пн400:00+18сз22743 0.0 101818
03:00+17зсз33820 0.0 101829
06:00+17ссз24855 0.0 101880
09:00+23сз22655 0.0 1017378
12:00+27зсз325121 0.0 10171131
15:00+28зсз22429 0.0 10162411
18:00+28ссз114637 0.0 10151307
21:00+22всв226696 0.0 101637
5 июля, вт
вт500:00+22юв226365 0.0 101626
03:00+19юв227227 0.0 101611
06:00+19ююз22754 0.0 101719
09:00+25ююз11572 0.0 1017366
12:00+29юз11446 0.0 10161575
15:00+30зсз123773 0.0 10152387
18:00+29с124233 0.0 10152244
21:00+23в2263100 0.0 101517
6 июля, ср
ср600:00+23юв225883 0.0 101644
03:00+19ююв336632 0.0 101625
06:00+19ююв367215 0.0 101695
09:00+25ююв355721 0.0 1015317
12:00+30ююв55395 0.0 10141667
15:00+31ююв553523 0.0 10132509
18:00+30юв58445 0.0 1012450
21:00+24с356187 0.0 1013111
7 июля, чт
чт700:00+21юв467598 0.6 1012106
03:00+19ссв348510 0.8 101372
06:00+18с249493 1.3 101391
09:00+22ссв217639 2.7 1014429
12:00+27сз225710 0.0 10141172
15:00+28зсз225584 0.0 10131224
18:00+24сз337193 0.8 101393
21:00+21ссв2387100 3.7 101464
8 июля, пт
пт800:00+17с2285100 1.6 101538
03:00+18всв349087 2.3 101572
06:00+18всв238784 0.2 101574
09:00+21с447875 0.2 1015366
12:00+24ссв4463100 0.0 1015746
15:00+26с5556100 0.0 1014846
18:00+26с676646 0.0 1014678
21:00+20с4988100 0.0 1015208